Regional Weather Roundup
Issued by NWS Burlington, VT

Current Version | Previous Version | Graphics & Text | Print | Product List | Glossary Off
Versions: 1 2 3 4 5 6 7 8 9 10 11 12 13 14 15 16 17 18 19 20 21 22 23 24 25 26 27 28 29 30 31 32 33 34 35 36 37 38 39 40 41 42 43 44 45 46 47 48 49 50

000
ASUS41 KBTV 070810
RWRBTV
VERMONT REGIONAL WEATHER ROUNDUP
NATIONAL WEATHER SERVICE BURLINGTON VT
400 AM EDT THU MAY 07 2015

NOTE: "FAIR" INDICATES FEW OR NO CLOUDS BELOW 12,000 FEET WITH NO
SIGNIFICANT WEATHER AND/OR OBSTRUCTIONS TO VISIBILITY.

* THESE REPORTS ARE NOT UNDER NWS QUALITY CONTROL AND/OR DO NOT
  REPORT WEATHER SUCH AS PRECIPITATION AND FOG.

VTZ001>019-070900-
_____VERMONT_____


CITY           SKY/WX    TMP DP  RH WIND       PRES   REMARKS
BURLINGTON     SUNNY     51  37  58 E3        30.17R
MONTPELIER     SUNNY     42  34  73 CALM      30.23R
MORRISVILLE    SUNNY     41  36  82 CALM      30.20R
ST. JOHNSBURY*   N/A     42  37  82 MISG      30.17R
LYNDONVILLE*     N/A     46  33  58 CALM      30.19S
MIDDLEBURY*      N/A     49  37  62 CALM      30.19S
RUTLAND*       MOSUNNY   45  30  57 SE12      30.21S
SPRINGFIELD    SUNNY     40  36  86 CALM      30.22R
HIGHGATE*        N/A     46  38  75 S3        30.16S
NEWPORT*         N/A     45  36  72 SW6       30.17S
BENNINGTON     SUNNY     43  38  82 CALM      30.21S

_____LAKE CHAMPLAIN_____


CITY           SKY/WX    TMP DP  RH WIND       PRES   REMARKS

$$

NYZ007-026>031-035-052-083-070900-
_____NORTHERN NEW YORK_____


CITY           SKY/WX    TMP DP  RH WIND       PRES   REMARKS
PLATTSBURGH    SUNNY     47  39  74 CALM      30.16R
SARANAC LAKE   SUNNY     31  29  92 CALM      30.20S
MASSENA        SUNNY     50  37  61 SW7       30.18S
OGDENSBURG*    SUNNY     45  43  93 S3        30.18S
POTSDAM*       SUNNY     50  39  66 S5        30.18F
WATERTOWN      SUNNY     47  38  71 N3        30.20R
FT DRUM        SUNNY     50  41  71 S7        30.19S
ALBANY         MOSUNNY   52  40  63 CALM      30.20F
GLENS FALLS    SUNNY     44  38  79 CALM      30.20S

$$
NHZ002-005-011-070900-
_____NEW HAMPSHIRE_____


CITY           SKY/WX    TMP DP  RH WIND       PRES   REMARKS
LEBANON        SUNNY     39  34  82 CALM      30.20R
KEENE          SUNNY     41  37  87 CALM      30.21F
MT WASHINGTON  MOSUNNY   37  27  65 NW40        N/A
PLYMOUTH         N/A     38  38 100 CALM      30.19F
WHITEFIELD     SUNNY     36  32  85 CALM      30.18R

$$

_____REGIONAL QUEBEC LOCATIONS_____


CITY           SKY/WX    TMP DP  RH WIND       PRES   REMARKS
MONTREAL       SUNNY     54  43  66 SW8       30.14S
QUEBEC CITY    MOSUNNY   48  37  66 SW13      30.10S
SHERBROOKE     SUNNY     39  36  87 E2        30.15R

_____REGIONAL ONTARIO LOCATIONS_____


CITY           SKY/WX    TMP DP  RH WIND       PRES   REMARKS
OTTAWA         SUNNY     52  37  58 SW7       30.16S

______KEY______
VSB  - VISIBILITY IN MILES
WCI  - WIND CHILL INDEX
HX   - HEAT INDEX
$$
NNNN


USA.gov is the U.S. government's official web portal to all federal, state and local government web resources and services.